Location: Piotrkow Trybunalski
(51.4000°N, 19.6830°E)
Time: 01:19:36
(UTC+02:00)

STRAND 1 - Pass Details

Date: 07 April 2023
Orbit: 767 x 779 km, 98.4° (Epoch: 06 June)

Event Time Altitude Azimuth Distance (km) Brightness Sun altitude
Rises 05:01:38 0° 123° (ESE) 3,243 ? -10.1°
Reaches altitude 10° 05:04:19 10° 110° (ESE) 2,318 ? -9.7°
Maximum altitude 05:08:19 24° 58° (ENE) 1,571 ? -9.1°
Drops below altitude 10° 05:12:20 10° 7° (N) 2,325 ? -8.6°
Sets 05:15:01 0° 353° (N) 3,255 ? -8.2°
